Theta_e
301 303 305 306 307 308 310 312 314 317 319 324 326 327 324 324 325 325 326 328 328 328 327 320 320 320 322 323 323 326 326 327 326 326 326 325 324 324 325 325 324 323 324
299 301 302 302 303 306 306 310 313 316 319 321 325 326 326 325 324 325 326 328 327 328 327 326 324 325 325 326 325 326 325 324 326 325 325 325 324 324 324 324 325 324 324
298 299 300 300 301 302 304 308 310 313 318 321 322 321 323 325 325 326 330 329 328 328 328 325 320 324 322 325 325 325 325 325 325 325 325 325 324 324 324 324 324 324 323
297 297 297 298 298 299 302 304 307 309 314 319 321 323 321 323 325 326 327 328 329 329 326 325 321 320 319 324 324 324 324 324 323 324 324 325 323 323 324 324 323 323 323
295 295 295 294 295 297 299 301 303 305 307 310 313 315 319 323 321 320 324 326 326 327 326 320 321 321 320 324 325 324 323 322 323 324 325 324 323 323 323 323 323 323 322
293 293 293 293 293 294 296 298 300 301 301 303 306 311 315 316 322 321 320 326 326 325 323 322 324 325 322 324 322 323 323 323 324 324 323 323 321 323 323 322 323 321 320
292 292 292 292 292 292 293 295 295 296 297 299 300 303 306 312 317 320 323 324 325 323 322 322 320 325 324 324 324 323 323 322 323 321 322 322 321 322 321 322 321 321 322
291 291 291 292 293 292 293 293 293 292 293 296 296 298 301 302 305 315 309 321 317 320 320 321 320 321 323 323 323 322 321 321 320 320 321 321 322 321 321 321 322 320 320
290 291 291 292 293 293 292 292 291 292 292 293 293 294 296 297 300 303 304 306 298 309 309 316 319 319 320 321 321 320 320 319 320 321 320 320 320 320 320 321 320 317 313
288 289 290 291 291 292 292 292 291 291 291 292 292 291 293 294 296 298 301 301 301 299 296 300 305 312 316 318 318 318 318 316 316 316 317 319 319 319 318 319 319 319 314
287 288 289 289 289 290 290 290 291 291 292 292 292 291 290 290 291 294 296 298 298 299 297 296 296 298 302 307 314 313 312 311 312 312 315 316 317 317 317 316 316 314 316
286 286 286 286 286 287 287 288 288 287 287 289 291 291 290 289 289 290 290 292 294 295 295 293 293 293 294 300 302 304 304 305 304 306 308 310 310 312 312 312 311 309 310
286 285 285 285 285 285 284 284 284 284 285 284 284 284 287 289 289 289 289 290 290 290 290 291 292 293 293 295 295 296 297 299 300 300 302 303 302 303 304 305 305 305 306
284 284 284 284 284 284 283 283 283 282 281 281 281 282 282 283 284 286 288 289 289 289 289 290 290 291 292 292 293 292 293 293 295 296 295 296 295 296 297 298 300 301 300
283 283 283 283 283 282 282 282 281 281 280 280 280 279 280 281 281 281 282 286 287 288 289 290 290 290 289 289 289 290 289 290 290 290 291 291 292 293 292 293 295 296 297
282 282 281 282 282 282 281 281 281 281 280 279 279 280 279 279 280 280 280 281 282 285 288 287 286 286 286 285 285 286 286 287 287 288 289 290 290 291 291 290 291 292 292
281 282 282 281 281 281 281 281 280 280 280 279 278 280 279 278 279 279 280 280 280 281 281 281 281 282 282 283 283 284 284 284 285 286 286 286 287 288 288 288 288 288 288
280 281 281 281 281 281 280 280 280 279 279 278 278 277 278 277 277 277 278 279 280 279 278 277 278 278 278 279 280 281 281 282 283 283 284 285 285 285 285 285 286 286 286
280 280 280 280 279 279 279 279 278 278 278 277 277 276 276 276 276 276 276 276 276 276 276 276 276 276 277 277 277 278 278 279 280 281 281 282 282 283 284 284 284 284 284
279 279 278 278 278 278 278 278 278 277 277 276 276 275 275 275 275 274 274 274 274 274 274 274 274 275 275 276 276 276 277 278 278 278 278 278 278 279 279 279 279 281 280
277 277 277 277 276 276 276 276 276 276 276 275 275 275 274 274 273 273 272 272 272 272 272 272 273 273 273 274 274 275 275 275 276 277 277 277 277 277 277 278 278 278 278
276 276 276 275 275 275 274 275 275 275 275 275 275 275 274 273 273 272 272 272 271 271 271 271 271 271 271 272 272 273 273 274 274 275 275 276 276 276 277 277 276 276 276
275 275 274 274 274 273 273 273 273 273 273 273 273 273 273 273 272 272 272 272 271 271 270 270 270 270 269 270 271 271 272 272 273 273 273 274 274 275 275 275 275 275 275
274 274 273 273 273 273 273 273 272 272 272 272 272 272 272 272 272 272 271 271 270 270 269 269 269 268 269 269 269 269 270 270 270 272 272 273 273 273 273 274 274 274 274
274 273 273 273 273 273 273 273 273 272 272 271 271 271 271 271 270 270 270 270 270 269 269 268 268 268 268 268 268 268 268 269 269 270 271 272 272 272 273 273 272 273 273
273 273 272 272 272 272 272 271 271 271 271 272 271 271 270 270 270 269 269 269 269 269 268 268 268 267 267 267 267 267 267 267 268 268 269 270 271 271 271 271 271 271 271
Wind_Speed
30 28 28 28 25 23 24 23 24 25 25 24 28 26 31 34 35 40 43 42 38 42 43 47 51 44 42 34 29 30 30 31 31 25 25 19 19 21 24 27 34 33 36
28 28 27 27 26 25 24 23 22 23 21 18 19 24 29 30 34 39 38 41 40 42 33 43 42 42 43 32 25 28 30 30 33 30 28 25 24 23 21 21 24 25 26
26 27 27 27 27 27 26 25 23 21 20 19 19 22 22 24 34 36 35 38 38 41 39 34 32 31 29 34 30 33 27 29 31 31 29 27 25 24 24 23 24 26 28
26 26 26 28 28 27 26 25 23 21 18 14 17 23 26 21 22 28 33 34 32 35 27 31 25 27 24 40 35 31 29 30 28 25 26 26 26 26 29 30 29 29 30
26 26 27 28 28 28 28 26 24 21 18 16 14 9 4 12 26 35 25 28 30 33 29 28 26 21 20 21 26 26 25 28 28 26 27 26 28 30 32 34 36 35 35
25 27 28 29 30 32 32 31 28 27 24 19 16 13 10 4 23 27 24 34 33 30 32 24 19 18 20 19 18 23 26 26 25 29 27 29 28 30 31 35 37 39 39
25 27 28 28 32 34 34 35 36 35 31 29 28 22 17 13 5 18 19 27 25 26 31 27 23 24 21 22 23 20 22 24 25 25 27 30 31 32 31 35 39 44 46
26 26 28 30 31 32 35 36 37 37 39 38 37 34 29 27 18 13 13 19 23 25 27 26 25 22 22 22 23 22 23 26 28 30 33 35 33 34 36 35 39 48 48
29 27 28 29 31 32 34 36 37 38 40 41 42 42 40 35 29 20 9 10 14 21 16 18 21 21 23 22 20 18 19 22 25 26 28 27 28 32 40 37 43 43 43
31 30 29 29 30 32 32 34 34 36 38 40 42 43 43 43 38 32 26 19 19 18 16 10 9 13 17 21 17 16 18 18 16 15 15 16 16 19 32 33 38 42 42
24 25 27 29 31 30 30 31 31 34 35 37 39 41 43 43 41 39 36 33 30 26 26 24 19 11 5 10 13 13 15 14 13 12 11 14 15 19 26 31 37 40 42
22 26 27 28 30 30 29 29 30 31 33 34 35 37 37 38 38 38 37 35 32 32 29 26 26 20 15 11 6 5 5 8 7 9 11 12 14 19 24 29 33 36 39
17 21 24 27 29 30 31 32 33 33 33 34 34 33 33 32 32 31 32 31 30 28 24 22 22 19 19 22 18 12 7 3 4 5 7 9 10 12 17 21 24 28 31
20 21 22 24 26 28 31 34 35 37 34 33 33 33 31 30 30 28 26 25 23 21 20 21 21 21 21 22 19 19 15 12 9 9 10 9 8 7 7 9 13 16 17
20 23 23 24 25 27 29 31 33 34 33 31 31 30 30 31 28 24 23 21 19 17 15 15 17 19 21 20 19 18 17 16 16 15 14 13 11 10 9 8 8 11 15
22 26 26 25 25 26 26 26 27 27 30 30 23 24 27 23 23 22 21 19 16 13 12 17 19 18 18 17 17 15 13 14 12 12 12 12 13 13 13 13 13 15 19
19 19 22 21 22 22 22 22 22 20 23 27 24 22 24 23 23 20 19 18 16 13 17 18 17 17 16 14 13 12 12 11 9 9 9 9 9 11 13 15 17 18 22
16 14 15 15 15 15 17 17 18 20 24 27 25 20 18 20 23 21 18 14 17 20 20 19 17 15 13 11 10 10 8 7 8 7 6 7 8 9 11 13 14 16 19
12 12 13 13 14 13 14 16 17 18 22 24 25 25 24 20 21 21 20 19 18 17 17 16 14 12 11 10 8 6 5 5 5 5 5 5 6 5 7 8 11 12 11
8 9 11 11 13 12 13 15 16 17 18 21 24 26 27 26 26 27 26 20 16 14 13 12 12 12 10 7 5 5 3 3 3 4 4 4 6 6 8 9 8 6 6
11 9 10 14 16 13 14 14 15 16 17 18 20 22 23 24 26 26 26 25 23 18 13 13 13 12 10 8 7 5 3 2 1 3 3 3 4 7 10 11 11 9 8
13 11 13 16 16 15 15 13 14 14 14 15 16 18 19 21 21 23 24 25 26 26 20 15 15 14 13 11 7 6 5 4 2 2 4 5 4 5 7 8 9 9 9
14 14 14 15 16 17 17 16 15 15 16 15 14 14 16 16 18 19 20 21 23 26 25 22 17 15 12 10 9 8 7 5 4 3 5 6 6 7 6 8 10 11 11
14 15 15 15 16 18 19 19 20 20 18 17 16 16 15 15 15 16 19 15 19 21 23 26 21 19 15 13 11 9 8 6 5 8 7 6 6 7 6 7 8 9 11
11 12 13 14 14 15 15 17 18 20 19 20 21 17 16 18 18 17 15 18 17 18 22 22 18 22 22 16 10 10 7 4 6 9 9 9 9 9 8 7 8 8 10
12 14 14 14 14 16 17 18 18 16 17 18 18 18 17 18 16 17 17 15 14 18 19 20 19 19 21 21 16 15 13 6 4 7 10 10 11 11 9 8 7 6 8
Wind_Direction
359 359 351 346 339 329 328 327 319 309 304 281 265 260 243 246 244 244 242 238 236 230 223 209 216 239 235 223 222 238 233 231 239 237 249 238 234 239 228 228 231 236 238
1 4 0 356 349 345 337 333 328 324 321 298 275 251 248 246 245 242 244 230 236 226 226 214 222 233 223 226 225 222 240 229 236 239 242 238 244 228 228 230 224 229 236
5 8 8 4 360 359 352 344 332 330 320 318 294 269 256 255 251 245 237 234 230 236 234 218 223 227 246 237 225 224 228 230 231 231 238 244 248 231 238 224 230 239 239
14 13 12 11 10 6 2 358 350 340 345 340 316 285 275 259 259 249 244 241 236 236 226 209 201 238 264 231 235 229 227 229 227 227 229 235 242 252 236 231 229 229 230
24 21 23 21 20 20 18 13 10 5 5 6 12 353 321 210 214 239 242 238 239 235 218 211 241 230 228 233 220 212 220 228 223 230 232 238 239 245 234 236 235 229 230
32 29 30 31 31 32 32 28 25 27 23 20 24 9 349 355 225 240 255 222 228 216 206 236 232 229 214 208 219 227 222 221 219 231 237 244 245 235 225 237 229 224 214
36 35 34 36 40 40 40 40 39 39 36 38 39 35 16 357 283 257 254 212 219 216 223 226 219 215 223 217 211 229 225 226 225 237 241 239 255 244 235 234 247 242 234
38 38 38 36 39 42 42 43 44 45 45 45 44 44 44 36 26 246 257 171 161 177 189 200 200 198 209 208 213 219 225 237 242 242 244 244 242 247 253 258 248 230 226
40 38 39 39 39 42 47 47 47 47 50 51 52 50 48 49 45 49 41 86 89 130 146 177 202 207 213 218 217 222 234 242 248 245 247 249 250 249 241 245 238 229 217
42 42 43 44 43 44 44 49 48 50 50 51 52 54 56 53 49 52 54 45 39 50 64 105 158 179 203 213 219 224 230 234 238 242 246 239 235 238 228 238 244 234 222
38 40 45 46 47 45 44 44 47 50 50 51 52 51 51 52 53 51 51 54 53 51 40 43 56 60 144 173 208 212 218 218 218 226 227 229 226 226 227 227 229 233 231
37 36 39 39 42 43 43 44 45 45 48 48 49 49 49 48 46 48 51 52 52 52 51 47 48 47 61 87 113 157 200 217 214 214 207 207 210 210 211 216 221 224 225
42 47 38 37 35 34 37 39 42 41 42 43 44 44 44 45 46 45 45 45 48 53 54 55 55 53 57 68 63 68 77 123 158 184 180 171 186 197 214 217 215 217 220
42 41 42 36 34 34 32 32 34 35 37 39 37 37 37 37 35 37 39 41 43 46 50 53 55 55 57 61 69 72 73 77 90 103 107 116 128 143 172 189 202 208 215
42 40 40 41 40 34 32 32 30 29 31 34 38 35 32 30 25 27 28 31 35 35 37 49 53 55 58 61 64 67 71 79 83 89 93 97 103 110 119 134 153 168 167
43 41 38 39 38 37 35 32 31 22 23 25 32 41 33 32 29 26 28 26 30 32 32 48 52 55 59 59 60 64 67 70 70 80 89 98 104 105 111 116 127 140 139
36 35 34 31 33 32 29 28 28 22 18 24 30 36 40 20 27 29 32 27 31 28 43 45 48 49 51 53 58 62 62 61 68 79 87 91 101 111 123 126 130 134 131
38 39 38 23 24 28 30 22 20 13 11 14 24 24 24 22 21 22 22 14 31 35 38 38 37 40 44 47 51 55 62 71 73 77 81 98 105 112 122 129 136 143 146
24 36 26 14 17 22 22 18 15 12 9 8 7 15 17 8 8 20 21 26 34 36 30 24 24 26 37 46 50 57 55 63 73 87 99 94 92 94 118 127 133 137 148
32 37 23 15 12 24 24 21 18 16 14 7 5 7 7 4 7 7 11 16 20 24 19 17 14 10 4 6 17 21 46 74 79 88 93 106 124 154 154 153 159 163 152
29 37 17 13 16 15 18 13 19 18 13 7 6 2 2 4 5 5 8 10 8 4 357 345 342 341 333 342 336 325 329 325 152 132 136 140 143 155 161 172 176 181 177
20 23 13 10 12 12 12 14 11 7 7 7 9 2 357 1 5 3 3 4 5 3 358 351 332 338 338 334 323 331 319 309 293 221 193 184 192 195 188 185 184 178 164
21 20 17 13 10 9 10 7 2 360 356 353 353 356 3 360 358 359 1 354 354 356 356 354 356 351 333 331 339 317 298 289 281 234 205 188 187 198 202 189 184 180 181
10 10 8 7 3 2 1 1 0 356 353 350 348 343 342 346 348 346 350 355 349 353 354 353 356 358 355 336 325 323 324 296 252 226 220 207 209 209 197 203 197 189 186
359 352 351 350 349 347 348 351 346 347 345 349 348 348 345 341 337 336 333 333 345 346 349 350 352 350 356 356 348 350 340 306 254 227 224 222 215 226 228 228 226 214 201
342 338 336 334 335 334 336 332 327 331 343 323 326 333 334 338 340 337 331 337 338 338 340 340 338 339 342 351 352 351 352 330 266 229 226 230 225 220 222 226 209 201 189